7 * 24
多渠道服务支持
STARLINK-32490 是 SpaceX Starlink 卫星互联网项目中的一颗低轨通信卫星。该卫星属于 Starlink 群体部署计划的一部分,旨在为全球用户提供高速互联网服务。它运行在约 550 公里的近地轨道上,采用先进的通信技术,支持宽带数据传输。该卫星的发射有助于扩大 Starlink 的覆盖范围,提高网络性能,并增强偏远地区的互联网接入能力。作为 Starlink 计划的组成部分,STARLINK-32490 有助于实现 SpaceX 构建全球卫星互联网的愿景。
美国
(US)
| 数据来源 | 国际轨道数据 |
| 星历时间: | 2025-12-19T09:46:03+0800 1天前 查看轨道信息 |
| 半长轴: | 6861.134km |
| 偏心率: | 0.000216 |
| 轨道倾角: | 42.998° |
| 近地点辐角 | 254.397° |
| 升交点赤经 | 231.135° |
| 平近点角 | 105.665° |
| 近地点: | 481.514km |
| 远地点: | 484.48km |
| 周期: | 94.266分钟 |
| 每日圈数: | 15.275975 |